This is the latest recevied weather packets stored in our database for station/object K7KAZ. If no packets are shown the sender has not sent any weather packets the latest 10 day(s).
| Time | Temp. | Humidity | Pressure | Rain* | Wind** | Luminosity | Snow |
|---|---|---|---|---|---|---|---|
| 1777684165 | 30° C | 22% | 1011.2 hPa | 0 mm | - | 92 W/m² | - |
| 1777683861 | 30° C | 21% | 1010.8 hPa | 0 mm | - | 97 W/m² | - |
| 1777683558 | 30° C | 21% | 1010.9 hPa | 0 mm | - | 110 W/m² | - |
| 1777683256 | 30.56° C | 21% | 1010.9 hPa | 0 mm | - | 126 W/m² | - |
| 1777682954 | 30.56° C | 21% | 1011.2 hPa | 0 mm | - | 137 W/m² | - |
| 1777682650 | 30° C | 21% | 1010.9 hPa | 0 mm | - | 165 W/m² | - |
| 1777682347 | 30.56° C | 21% | 1010.8 hPa | 0 mm | - | 171 W/m² | - |
| 1777682044 | 30° C | 22% | 1011.1 hPa | 0 mm | - | 199 W/m² | - |
| 1777681740 | 30.56° C | 21% | 1010.6 hPa | 0 mm | - | 194 W/m² | - |
| 1777681438 | 30.56° C | 21% | 1011.2 hPa | 0 mm | - | 220 W/m² | - |
| 1777681135 | 30° C | 21% | 1011.2 hPa | 0 mm | - | 226 W/m² | - |
| 1777680832 | 30° C | 21% | 1011.2 hPa | 0 mm | - | 241 W/m² | - |
| 1777680530 | 30° C | 22% | 1011.2 hPa | 0 mm | - | 289 W/m² | - |
| 1777680228 | 30° C | 22% | 1011.2 hPa | 0 mm | - | 289 W/m² | - |
| 1777679924 | 30° C | 21% | 1011.1 hPa | 0 mm | - | 287 W/m² | - |
| 1777679619 | 30° C | 21% | 1011.2 hPa | 0 mm | - | 308 W/m² | - |
| 1777679315 | 30.56° C | 21% | 1011.2 hPa | 0 mm | - | 329 W/m² | - |
| 1777679012 | 30° C | 21% | 1011.5 hPa | 0 mm | - | 316 W/m² | - |
| 1777678711 | 30° C | 20% | 1011.4 hPa | 0 mm | - | 385 W/m² | - |
| 1777678408 | 30.56° C | 21% | 1011.3 hPa | 0 mm | - | 357 W/m² | - |
| 1777678103 | 30.56° C | 20% | 1011.4 hPa | 0 mm | - | 388 W/m² | - |
| 1777677801 | 30° C | 20% | 1011.4 hPa | 0 mm | - | 368 W/m² | - |
| 1777677498 | 29.44° C | 21% | 1011.3 hPa | 0 mm | - | 366 W/m² | - |
| 1777677196 | 30.56° C | 21% | 1011.5 hPa | 0 mm | - | 424 W/m² | - |
| 1777676894 | 30° C | 21% | 1011.4 hPa | 0 mm | - | 456 W/m² | - |
* Rain latest hour (hover to see other rain measurements)
** Current wind speed in m/s (hover to see current wind gust speed)